Skip Page Navigation
NASA JPL Caltech
NASA Logo - Jet Propulsion Laboratory + View the NASA Portal
+ Center for Near-Earth Object Studies
JPL Home Earth Solar System Stars & Galaxies Technology
JPL Solar System Dynamics
BODIES ORBITS EPHEMERIDES TOOLS PHYSICAL DATA DISCOVERY FAQ SITE MAP
IMPORTANT: The SSD Announcement email list is now available. Major changes are coming in the near future, including possible hostname and/or URL changes. To be notified of such changes, subscribe to this email list.

Please visit this page for more details.


JPL Small-Body Database Browser
Search: [ help ]  
233961 (2010 AA3)
Classification: Main-belt Asteroid          SPK-ID: 2233961
Ephemeris | Orbit Diagram | Orbital Elements | Mission Design | Physical Parameters | Discovery Circumstances | Close-Approach Data ]

[ show orbit diagram ]
Orbital Elements at Epoch 2458600.5 (2019-Apr-27.0) TDB
Reference: JPL 15 (heliocentric ecliptic J2000)
 Element Value Uncertainty (1-sigma)   Units 
e .06691006353860991 5.59e-08  
a 2.733705341146123 2.9073e-08 au
q 2.550792943074199 1.5266e-07 au
i 15.02172983166626 6.7286e-06 deg
node 133.1446433159362 2.466e-05 deg
peri 307.206176789262 7.5815e-05 deg
M 58.26035067585199 6.7039e-05 deg
tp 2458333.324535920219
(2018-Aug-02.82453592)
0.00030858 TDB
period 1650.919810007043
4.52
2.6336e-05
7.21e-08
d
yr
n .2180602581772063 3.4786e-09 deg/d
Q 2.916617739218048 3.1018e-08 au
  Orbit Determination Parameters
   # obs. used (total)      379  
   data-arc span      9943 days (27.22 yr)  
   first obs. used      1992-02-05  
   last obs. used      2019-04-27  
   planetary ephem.      DE431  
   SB-pert. ephem.      SB431-N16  
   condition code      0  
   norm. resid. RMS      .62741  
   source      ORB  
   producer      Otto Matic  
   solution date      2019-Jul-14 12:54:02  

Additional Information
 Earth MOID = 1.59309 au 
 Jupiter MOID = 2.23093 au 
 T_jup = 3.300 
[ show covariance matrix ]

Ephemeris | Orbit Diagram | Orbital Elements | Mission Design | Physical Parameters | Discovery Circumstances | Close-Approach Data ]

Physical Parameter Table
Parameter Symbol Value Units Sigma Reference Notes
absolute magnitude H 15.7   n/a MPO338669  

233961 (2010 AA3)          Discovered 2010-Jan-07 by Lowe, A. at Mayhill
Reference: 20100228/Numbers.arcLast Updated: 2010-03-03

[ show close-approach data ]
Ephemeris | Orbit Diagram | Orbital Elements | Mission Design | Physical Parameters | Discovery Circumstances | Close-Approach Data ]
ABOUT SSD CREDITS/AWARDS PRIVACY/COPYRIGHT GLOSSARY LINKS
FirstGov 2019-Dec-11 15:01 UT
(server date/time)  
NASA Home Page
Site Manager:   Ryan S. Park
Webmaster  Alan B. Chamberlin